Regional Weather Roundup
Issued by NWS

Home | Current Version | Previous Version | Text Only | Print | Product List | Glossary On
Versions: 1 2 3 4 5 6 7 8 9 10 11 12 13 14 15 16 17 18 19 20 21 22 23 24 25 26 27 28 29 30 31 32 33 34 35 36 37 38 39 40 41 42 43 44 45 46 47 48 49 50
000
ASUS44 KFWD 251503
RWRTX
NORTH TEXAS HOURLY WEATHER ROUNDUP
NATIONAL WEATHER SERVICE FORT WORTH TX
900 AM CST SAT FEB 25 2017

NOTE: "FAIR" INDICATES FEW OR NO CLOUDS BELOW 12,000 FEET WITH NO
SIGNIFICANT WEATHER AND/OR OBSTRUCTIONS TO VISIBILITY.

TXZ118-119-251600-
DALLAS/FORT WORTH METROPLEX

CITY           SKY/WX    TMP DP  RH WIND       PRES   REMARKS
DFW AIRPORT    SUNNY     40  26  57 N12       30.25R WCI  33
DALLAS LOVE    MOSUNNY   40  25  55 N8        30.27R WCI  34
FTW MEACHAM    MOSUNNY   38  24  57 N9        30.27R WCI  31
DAL-EXECUTIVE  SUNNY     40  23  50 N9        30.25R WCI  34
FTW-ALLIANCE   MOSUNNY   37  24  59 N8        30.26R WCI  31
FTW-NAS-JRB    SUNNY     38  25  59 N13       30.28R WCI  30
FTW-SPINKS     SUNNY     39  27  60 NW7       30.28R WCI  34
ARLINGTON      SUNNY     40  24  53 N7        30.26R WCI  35
GRAND PRAIRIE  SUNNY     39  25  56 N8        30.28R WCI  34
ADDISON        SUNNY     37  25  60 N7        30.26R WCI  32
MESQUITE       SUNNY     39  27  60 N7        30.27R WCI  34
LANCASTER      MOSUNNY   38  24  57 N9        30.27R WCI  32
$$

TXZ091>094-102>105-117-120-121-131>134-251600-
NORTH CENTRAL TEXAS

CITY           SKY/WX    TMP DP  RH WIND       PRES   REMARKS
SHRMAN/DENISON SUNNY     35  23  62 N12       30.26R WCI  26
GAINESVILLE    MOSUNNY   33  22  63 N8        30.28R WCI  26
BOWIE          SUNNY     33  24  68 N9        30.27R WCI  26
BRIDGEPORT     SUNNY     35  26  67 N6        30.30R WCI  30
DECATUR        SUNNY     34  23  63 CALM      30.26R
DENTON         SUNNY     35  25  66 N10       30.27R WCI  27
MCKINNEY       SUNNY     36  25  64 N13       30.26R WCI  27
BONHAM         SUNNY     34  23  64 N8        30.24R WCI  27
GREENVILLE       N/A     36  25  64 N7        30.25R WCI  30
ROCKWALL       SUNNY     37  25  60 N9        30.26R WCI  31
TERRELL        MOSUNNY   39  23  52 N8        30.26R WCI  33
WAXAHACHIE     MOSUNNY   39  26  58 N3        30.27R
CLEBURNE       SUNNY     39  27  60 N7        30.27R WCI  34
GRANBURY       SUNNY     39  26  59 N7        30.29R WCI  34
$$

TXZ083>090-098>101-113>116-127>130-139>142-154-155-251600-
WESTERN NORTH TEXAS

CITY           SKY/WX    TMP DP  RH WIND       PRES   REMARKS
WICHITA FALLS  MOSUNNY   31  20  63 N9        30.29R WCI  23
WF-KICKAPOO    MOSUNNY   31  21  64 N9        30.31R WCI  23
VERNON         SUNNY     31  17  55 NE3       30.31R
ABILENE        SUNNY     35  24  64 NE7       30.25R WCI  29
ABILENE-DYESS  SUNNY     37  23  58 NE7       30.24R WCI  31
BRECKENRIDGE   SUNNY     38  25  59 N5        30.28R WCI  35
CISCO          SUNNY     36  25  64 VRB6      30.24R WCI  31
RANGER         SUNNY     36  27  69 N8        30.26R WCI  29
MINERAL WELLS  SUNNY     37  25  61 N7        30.26R WCI  32
STEPHENVILLE   SUNNY     38  24  56 NE6       30.27R WCI  33
COMANCHE       SUNNY     38  27  65 NE7       30.25R WCI  33
BROWNWOOD      SUNNY     39  23  52 NE8       30.25R WCI  34
COLEMAN        SUNNY     38  25  59 NE8       30.24R WCI  32
$$

TXZ143>147-156>162-174-175-251600-
CENTRAL TEXAS

CITY           SKY/WX    TMP DP  RH WIND       PRES   REMARKS
WACO           SUNNY     42  26  53 N14       30.25R WCI  35
WACO-TSTC      SUNNY     41  27  56 N7        30.26R WCI  36
WACO-MCGREGOR  SUNNY     42  26  53 NE13      30.26R WCI  35
HILLSBORO      SUNNY     41  27  58 NW6       30.26R WCI  37
CORSICANA      MOSUNNY   41  26  55 N10       30.27R WCI  35
MEXIA          SUNNY     42  25  51 N7        30.23R WCI  37
HEARNE         MOSUNNY   44  29  55 N7        30.24R
CAMERON        MOSUNNY   44  29  55 N14       30.24R WCI  37
TEMPLE         MOSUNNY   43  28  55 N13       30.24R WCI  36
KILLEEN        SUNNY     41  26  55 NE13      30.22R WCI  34
KILLEEN-SKYLRK SUNNY     42  25  50 NE14      30.24R WCI  35
FORT HOOD      SUNNY     42  27  54 NE8       30.21R WCI  37
HAMILTON       SUNNY     40  26  59 N12       30.24R WCI  32
LAMPASAS       SUNNY     41  29  63 NE9       30.22R WCI  35
$$

TXZ095>097-106>112-122>126-135>138-148>153-164>167-251600-
EAST TEXAS

CITY           SKY/WX    TMP DP  RH WIND       PRES   REMARKS
PARIS          SUNNY     36  23  60 N10       30.23R WCI  28
SULPHUR SPRNGS SUNNY     38  26  64 N10       30.26R WCI  30
MOUNT PLEASANT SUNNY     39  24  54 N7        30.24R WCI  34
GILMER         SUNNY     37  23  55 N7        30.23R WCI  32
MINEOLA        SUNNY     39  23  52 N10G17    30.24R WCI  32
TYLER          SUNNY     40  23  50 N8        30.23R WCI  34
LONGVIEW       SUNNY     42  25  50 N12       30.21R WCI  36
MARSHALL       SUNNY     40  23  50 N9        30.23R WCI  34
PALESTINE      SUNNY     43  28  55 N8        30.24R WCI  38
JACKSONVILLE   SUNNY     42  26  53 N7        30.22R WCI  37
HENDERSON      SUNNY     42  25  51 NW5       30.23R WCI  39
CENTER         SUNNY     47  28  47 N8        30.20R
NACOGDOCHES    SUNNY     45  27  49 N10       30.18R WCI  39
LUFKIN         SUNNY     46  26  45 N7        30.19R
$$

SUPPLEMENTAL OBSERVATIONS (CENTRAL)

CITY           SKY/WX    TMP DP  RH WIND       PRES   REMARKS
$$

SUPPLEMENTAL OBSERVATIONS (WEST)

CITY           SKY/WX    TMP DP  RH WIND       PRES   REMARKS
$$

SUPPLEMENTAL OBSERVATIONS (EAST)

CITY           SKY/WX    TMP DP  RH WIND       PRES   REMARKS
$$

SUPPLEMENTAL OBSERVATIONS ARE A COLLECTION OF AUTOMATED INSTRUMENTS
THAT ARE MAINTAINED BY A VARIETY OF FEDERAL AND STATE AGENCIES.
CERTAIN ELEMENTS...SUCH AS HUMIDITY VALUES AND SUSTAINED WIND
SPEEDS...MAY BE APPROXIMATED.





USA.gov is the U.S. government's official web portal to all federal, state and local government web resources and services.